DW2342 Weather Reports


time (UTC)temp
F
wind
direction
speed
knots
gust
knots
rain 1hr
in
rain 24hr
in
rain mn
in
humidity
%
barometer
mb
20260506044550 41 103 3.5 7.0 0.00 0.00 0.00 77 1015.0
20260506043044 41 113 3.5 8.7 0.00 0.00 0.00 77 1014.9
20260506041552 41 133 3.5 11.3 0.00 0.00 0.00 77 1015.0
20260506040043 42 88 7.0 12.2 0.00 0.00 0.00 76 1015.0
20260506034546 41 96 4.3 10.4 0.00 0.00 0.00 77 1015.1
20260506033041 42 123 2.6 11.3 0.00 0.00 0.00 77 1015.2
20260506031539 41 86 3.5 8.7 0.00 0.00 0.00 77 1015.2
20260506030039 41 338 1.7 4.3 0.00 0.00 0.00 78 1015.2
20260506024537 42 72 1.7 6.1 0.00 0.00 0.00 76 1015.2
20260506023034 42 106 2.6 5.2 0.00 0.00 0.00 76 1015.2
20260506021541 42 103 2.6 7.0 0.00 0.00 0.00 77 1015.2
20260506020033 42 98 4.3 8.7 0.00 0.00 0.00 77 1015.2
20260506014532 42 123 2.6 8.7 0.00 0.00 0.00 78 1015.2
20260506013034 42 115 3.5 9.6 0.00 0.00 0.00 78 1015.2
20260506011553 42 79 4.3 8.7 0.00 0.00 0.00 77 1015.3
20260506010030 43 101 3.5 7.8 0.00 0.00 0.00 77 1015.4
20260506004540 42 88 4.3 11.3 0.00 0.00 0.00 78 1015.3
20260506003030 42 109 6.1 9.6 0.00 0.00 0.00 78 1015.3
20260506001525 43 92 4.3 8.7 0.00 0.00 0.00 78 1015.3
20260506000022 43 141 3.5 7.8 0.00 0.00 0.00 78 1015.3
20260505234521 43 84 3.5 7.0 0.00 0.00 0.00 78 1015.4
20260505233027 43 146 2.6 7.0 0.00 0.00 0.00 77 1015.4
20260505231520 44 86 6.1 7.8 0.00 0.00 0.00 77 1015.5
20260505230013 44 152 0.0 5.2 0.00 0.00 0.00 77 1015.6
20260505224512 44 97 1.7 7.8 0.00 0.00 0.00 77 1015.6
20260505223016 44 98 6.1 8.7 0.00 0.00 0.00 77 1015.5
20260505221511 44 123 6.1 9.6 0.00 0.00 0.00 77 1015.5
20260505220022 44 90 4.3 8.7 0.00 0.00 0.00 77 1015.4
20260505214609 44 88 3.5 7.8 0.00 0.00 0.00 77 1015.5
20260505213011 45 116 2.6 7.0 0.00 0.00 0.00 77 1015.4
20260505211507 45 128 2.6 6.1 0.00 0.00 0.00 77 1015.3
20260505210007 45 90 3.5 6.1 0.00 0.00 0.00 77 1015.2
20260505204505 45 134 1.7 5.2 0.00 0.00 0.00 77 1015.2
20260505203008 45 92 2.6 5.2 0.00 0.00 0.00 77 1015.2
20260505201504 45 137 0.9 7.8 0.00 0.00 0.00 77 1015.2
20260505200003 45 127 6.1 12.2 0.00 0.00 0.00 77 1015.1
20260505194503 46 121 5.2 11.3 0.00 0.00 0.00 77 1015.0
20260505193001 46 78 7.0 13.9 0.00 0.00 0.00 77 1014.9
20260505191501 46 86 5.2 12.2 0.00 0.00 0.00 76 1014.7
20260505190100 46 90 8.7 15.6 0.00 0.00 0.00 76 1014.7
20260505184600 47 83 7.0 13.0 0.00 0.00 0.00 75 1014.6
20260505183101 47 72 5.2 11.3 0.00 0.00 0.00 75 1014.6
20260505181607 48 73 7.8 14.8 0.00 0.00 0.00 75 1014.6
20260505180057 48 90 7.0 15.6 0.00 0.00 0.00 76 1014.4
20260505174557 49 82 9.6 16.5 0.00 0.00 0.00 76 1014.3
20260505173056 49 94 9.6 15.6 0.00 0.00 0.00 77 1014.3
20260505171556 50 90 6.1 11.3 0.00 0.00 0.00 76 1014.4
20260505170056 50 88 6.1 13.0 0.00 0.00 0.00 75 1014.4
20260505164601 50 88 6.1 11.3 0.00 0.00 0.00 75 1014.3
20260505163054 50 36 4.3 9.6 0.00 0.00 0.00 75 1014.2
20260505161557 50 92 3.5 10.4 0.00 0.00 0.00 76 1014.2
20260505153107 52 311 3.5 9.6 0.00 0.00 0.00 73 1014.1
20260505151551 52 297 4.3 8.7 0.00 0.00 0.00 72 1014.1
20260505124549 52 313 1.7 7.0 0.00 0.00 0.00 71 1014.2
20260505123046 52 306 3.5 9.6 0.00 0.00 0.00 72 1014.3
20260505121541 52 326 2.6 7.8 0.00 0.00 0.00 70 1014.3
20260505120049 51 346 3.5 10.4 0.00 0.00 0.00 71 1014.3
20260505114540 51 330 3.5 7.8 0.00 0.00 0.00 72 1014.3
20260505113045 51 337 3.5 9.6 0.00 0.00 0.00 72 1014.4
20260505111539 51 329 4.3 8.7 0.00 0.00 0.00 71 1014.3
20260505101534 50 310 5.2 8.7 0.00 0.00 0.00 68 1014.4
20260505100033 50 346 6.1 8.7 0.00 0.00 0.00 70 1014.5
20260505094534 49 301 5.2 10.4 0.00 0.00 0.00 70 1014.4
20260505093030 50 321 5.2 9.6 0.00 0.00 0.00 71 1014.5
20260505091526 49 17 4.3 7.8 0.00 0.00 0.00 73 1014.4
20260505090024 48 330 3.5 7.8 0.00 0.00 0.00 75 1014.3
20260505084540 48 5 2.6 7.8 0.00 0.00 0.00 77 1014.5
20260505083020 48 17 1.7 6.1 0.00 0.00 0.00 79 1014.5
20260505081519 47 333 3.5 8.7 0.00 0.00 0.00 81 1014.5
20260505080018 47 355 3.5 8.7 0.00 0.00 0.00 82 1014.5
20260505074517 47 350 2.6 9.6 0.00 0.00 0.00 82 1014.5
20260505073016 47 355 3.5 8.7 0.00 0.00 0.00 82 1014.4
20260505071519 47 312 6.1 9.6 0.00 0.00 0.00 82 1014.4
20260505070014 47 345 3.5 8.7 0.00 0.00 0.00 83 1014.4
20260505064517 47 360 3.5 7.0 0.00 0.00 0.00 85 1014.3
20260505063011 47 309 3.5 7.8 0.00 0.00 0.00 86 1014.3
20260505061510 46 333 0.9 4.3 0.00 0.00 0.00 87 1014.2
20260505060008 46 325 0.9 3.5 0.00 0.00 0.00 87 1014.1
20260505054507 46 360 0.0 1.7 0.00 0.00 0.00 87 1013.9
20260505053005 45 360 0.9 2.6 0.00 0.00 0.00 87 1013.9